Theta_e
337 339 340 342 342 341 341 338 337 337 337 337 336 334 333 331 332 335 333 349 350 351 356 358 356 356 355 355 353 353 352 352 352 352 350 350 348 349 347 342 344 345 345
338 339 336 340 341 342 341 340 338 337 336 336 335 334 333 335 338 334 338 340 350 350 353 355 355 355 354 354 353 349 348 347 345 347 345 344 341 341 341 341 342 342 342
338 342 338 340 342 342 340 340 340 339 337 336 335 335 340 341 339 339 340 341 344 349 349 350 352 352 353 354 352 349 348 347 345 342 342 339 339 339 339 336 335 337 337
342 346 343 343 346 345 343 342 339 335 334 335 337 336 337 338 337 338 338 338 339 344 347 350 351 352 352 353 352 350 348 347 342 342 340 339 339 338 338 335 336 335 335
348 348 347 344 344 343 342 340 339 337 336 335 335 335 334 334 334 338 337 337 336 337 338 343 348 349 350 352 352 352 349 347 345 342 340 340 340 339 339 336 335 334 333
349 347 345 345 344 341 340 339 335 337 335 333 335 333 331 331 331 331 333 336 336 336 338 341 342 343 348 351 351 352 351 349 345 343 340 339 339 339 338 336 335 333 331
350 347 346 344 343 341 340 337 335 332 330 331 325 324 326 327 329 330 334 337 337 338 338 339 339 340 341 347 348 350 351 350 347 344 340 338 338 338 338 337 335 333 331
350 349 346 342 342 340 338 336 334 329 329 329 323 321 317 321 326 327 328 331 329 327 327 327 327 336 339 338 339 346 349 349 348 345 342 339 338 338 337 337 334 332 331
349 346 345 343 340 340 338 336 332 329 324 327 327 320 315 313 317 323 324 323 325 327 327 327 327 330 336 334 336 338 344 345 348 347 344 342 340 339 337 336 335 332 331
347 345 344 341 340 338 334 333 334 330 328 323 323 328 325 322 316 313 320 320 321 323 325 325 325 327 327 327 330 336 336 338 343 344 343 343 342 341 337 335 333 333 330
342 344 341 339 337 337 335 333 330 327 327 326 324 324 322 321 318 314 312 316 319 320 319 319 319 318 319 319 319 324 331 334 335 338 340 340 341 339 336 335 333 333 330
338 339 339 337 337 335 333 332 332 330 328 327 325 324 321 318 317 316 315 313 315 319 318 317 316 316 316 315 323 329 328 327 328 330 332 333 335 334 334 332 330 329 329
333 333 333 331 330 328 327 327 325 323 323 322 321 321 323 323 321 317 314 313 311 312 313 314 314 315 317 315 319 326 325 324 323 323 324 326 328 330 330 330 329 327 327
328 330 328 327 325 325 323 322 320 319 316 316 316 316 317 317 317 316 313 310 308 309 310 310 313 314 313 315 319 323 316 321 321 321 320 321 323 325 326 326 327 327 327
326 323 322 321 319 318 317 315 313 313 311 311 311 310 310 312 311 312 311 310 307 305 306 310 308 312 313 313 315 315 314 318 320 320 320 320 320 321 322 322 322 322 323
312 312 311 311 311 310 310 309 308 308 306 306 307 306 306 308 308 309 309 309 308 307 305 308 309 311 313 313 315 314 314 319 319 319 320 320 319 318 319 319 319 320 321
309 310 310 310 308 306 305 304 304 304 304 303 304 304 304 305 305 306 307 307 306 306 304 307 308 309 305 307 311 312 314 313 314 317 318 318 316 316 316 316 317 318 319
307 308 309 306 305 304 303 302 302 302 301 300 302 302 303 307 304 305 304 304 304 305 304 304 307 309 309 310 309 308 310 312 312 316 316 316 315 314 313 313 313 314 314
308 307 305 304 303 302 301 300 300 300 299 300 301 302 303 305 307 309 307 307 308 307 305 304 304 306 306 308 308 309 309 310 313 317 316 315 314 313 313 312 312 311 310
306 305 304 303 301 300 299 299 299 297 298 300 301 303 306 307 306 302 302 301 301 299 300 300 301 302 303 304 305 304 304 307 307 310 312 312 312 313 312 312 312 313 309
304 305 303 301 299 298 298 297 297 297 296 299 304 305 307 308 305 302 298 297 297 296 296 297 297 299 299 300 300 303 302 304 306 307 307 308 309 312 311 312 314 314 311
301 302 301 298 296 298 297 298 299 295 297 300 301 303 306 301 298 297 298 299 298 296 295 295 296 296 297 299 300 300 301 299 298 307 306 305 307 307 308 310 310 308 307
297 299 301 300 297 296 296 296 298 295 296 297 298 301 298 296 295 295 295 297 297 298 299 297 295 296 297 298 299 298 299 299 300 303 303 301 305 303 306 307 308 306 305
298 302 301 300 298 296 295 295 296 294 295 296 297 295 295 295 295 294 293 294 294 295 296 297 297 297 298 299 299 300 300 300 301 302 303 298 303 302 304 306 307 306 305
297 301 299 297 295 292 294 293 294 292 293 294 297 296 296 294 294 294 293 292 293 294 298 299 299 298 297 297 299 302 301 300 299 300 303 301 302 303 305 305 307 307 304
292 295 297 297 296 290 293 293 293 293 292 294 295 295 297 294 293 293 293 292 291 292 294 296 298 300 302 304 304 305 303 299 300 298 305 302 303 304 303 307 306 303 306
Wind_Speed
5 4 4 4 4 4 4 4 4 4 5 6 7 7 7 7 8 5 4 11 11 13 12 14 15 13 12 11 11 10 9 11 13 10 11 9 10 9 8 10 7 7 9
5 5 5 5 5 6 5 5 5 5 6 5 7 7 7 6 4 5 3 4 11 11 11 11 13 14 13 11 9 9 7 9 19 13 8 8 6 7 6 5 5 7 8
7 6 5 5 7 6 6 5 6 5 3 3 5 3 2 4 4 4 4 3 4 11 10 20 15 16 14 11 11 12 14 16 13 11 9 8 8 7 5 5 7 8 9
6 6 5 4 3 3 4 4 3 2 3 1 1 2 3 3 5 6 5 4 5 5 9 15 15 15 14 14 16 14 14 12 11 13 10 9 9 8 6 7 8 7 9
7 5 4 2 3 4 4 1 2 1 2 1 2 3 3 3 6 6 9 7 7 6 5 10 16 16 15 16 16 17 15 14 14 13 13 13 12 11 10 10 8 8 10
8 5 4 5 2 3 3 1 2 1 0 2 3 5 4 4 4 5 6 6 6 6 6 7 5 6 14 16 14 17 19 18 17 17 17 16 15 15 13 12 12 12 11
6 6 4 3 2 2 3 3 1 1 1 1 2 4 3 5 4 4 4 4 6 4 5 4 4 5 7 15 16 17 20 20 20 20 19 18 18 16 15 16 16 14 13
7 5 5 3 3 3 2 0 2 2 1 2 1 1 4 5 4 5 4 5 6 2 4 6 5 8 8 6 9 16 20 22 23 23 21 19 18 18 18 18 16 15 14
5 5 5 4 4 3 1 1 1 4 1 1 3 3 2 4 3 3 5 4 7 4 5 6 7 8 5 4 7 11 19 21 24 25 23 17 20 21 19 17 16 16 16
5 5 5 5 3 2 1 1 1 2 2 2 2 4 4 4 4 6 3 4 4 6 6 5 5 6 6 5 9 13 15 15 22 23 23 24 23 20 20 19 17 17 17
6 7 5 5 4 1 1 0 0 1 1 1 2 2 2 2 1 3 6 5 5 4 5 4 5 5 6 5 5 7 14 15 17 19 20 20 20 18 19 19 19 18 20
4 6 5 4 5 5 3 3 4 5 4 2 2 2 1 2 4 2 3 5 6 8 4 5 5 5 5 4 7 6 8 7 7 9 10 9 9 12 17 19 20 22 24
4 6 6 7 5 6 6 5 6 6 5 4 4 3 2 2 2 2 2 4 4 4 5 5 4 5 5 4 5 9 11 11 9 8 8 9 10 12 15 18 22 24 25
6 7 8 7 7 6 5 6 4 4 4 5 7 6 3 3 3 2 3 3 8 6 4 8 4 5 4 4 9 14 6 11 12 13 13 14 15 17 18 20 22 22 23
8 9 8 8 8 7 7 6 5 7 6 5 6 5 3 3 4 4 3 2 3 9 11 8 4 5 5 5 11 13 11 13 14 15 16 16 17 17 18 22 21 21 22
8 8 8 7 8 9 9 8 7 7 7 4 4 6 5 3 5 4 4 4 3 7 11 3 6 6 8 9 13 14 13 18 17 18 16 16 17 17 19 20 21 20 20
7 8 7 9 10 9 9 8 7 7 7 6 6 6 6 6 4 5 5 4 4 5 10 9 7 8 5 8 11 11 11 12 11 17 17 19 17 16 17 17 16 17 18
7 8 10 10 10 10 8 9 8 7 7 7 7 7 8 7 8 6 4 6 5 5 6 14 11 10 12 13 11 11 11 11 11 15 20 20 19 15 17 18 15 16 16
11 11 10 10 10 9 9 8 7 7 7 6 7 7 8 8 8 6 7 7 6 7 9 10 12 10 11 11 12 12 11 11 9 17 15 16 16 13 14 14 14 15 14
11 10 8 8 8 8 8 8 8 7 7 7 6 6 8 9 7 8 8 9 9 10 10 10 12 11 11 11 9 9 9 7 9 9 13 17 17 17 12 11 11 12 12
7 7 7 7 6 9 8 9 8 7 6 7 7 8 9 7 15 15 10 11 12 10 9 9 10 9 10 9 9 8 9 8 8 8 9 9 9 7 7 8 10 12 10
7 7 7 8 7 7 14 16 11 6 7 8 8 8 8 13 17 21 20 20 15 11 11 9 10 10 12 11 9 9 9 8 5 4 4 9 9 9 8 4 8 11 11
7 6 6 7 8 8 15 17 17 6 7 8 9 9 9 10 14 13 17 17 13 15 14 11 12 12 14 14 13 13 12 9 8 8 7 9 7 9 7 8 11 10 8
6 6 7 6 6 7 17 19 18 8 7 7 6 8 9 11 13 16 14 14 13 11 10 9 10 13 13 14 13 13 13 10 7 7 7 5 3 7 6 6 8 6 7
7 6 7 7 7 7 16 18 14 7 6 6 6 7 10 12 20 22 13 15 17 16 16 19 18 18 19 20 16 7 6 7 4 2 2 3 3 4 3 1 0 3 9
5 5 7 5 10 6 12 15 15 5 7 7 7 8 14 17 20 19 12 12 13 14 16 18 17 17 15 14 14 6 6 7 5 2 1 4 3 3 3 2 0 3 4
Wind_Direction
199 188 205 187 200 200 204 210 213 221 236 235 242 242 253 260 269 263 263 263 210 209 213 221 232 231 233 238 248 262 279 278 265 246 237 237 227 229 211 245 296 313 301
211 195 185 205 207 212 201 209 202 213 233 220 236 239 258 268 295 265 280 285 237 228 226 236 244 248 245 240 253 258 298 309 282 250 240 233 235 241 261 271 329 301 298
207 208 187 206 212 206 200 209 213 221 233 265 258 277 229 253 315 3 343 333 284 253 215 232 238 247 244 236 237 245 241 236 235 244 233 236 238 239 249 272 284 293 311
200 221 205 213 176 180 217 212 213 220 227 212 101 289 310 342 316 291 266 208 239 254 251 247 245 243 246 248 249 234 235 234 233 238 231 231 235 236 238 261 274 299 307
190 201 184 160 89 82 83 129 219 73 22 357 290 278 271 275 276 280 271 264 247 238 234 247 249 251 248 246 244 243 241 232 230 231 227 227 227 227 226 241 252 266 280
189 187 159 160 122 96 110 110 104 54 101 277 302 301 295 282 281 273 269 272 258 247 219 232 244 262 251 249 239 241 242 238 229 224 226 226 226 224 219 229 236 244 255
170 159 153 112 113 120 124 127 128 136 291 42 12 314 301 269 270 284 271 259 257 258 257 254 241 241 251 240 237 241 241 240 236 231 227 227 228 226 221 228 231 240 247
151 154 144 150 112 106 87 47 148 287 279 313 147 350 329 327 295 279 265 262 268 269 259 257 278 269 249 243 241 233 238 240 240 237 232 229 227 226 223 227 233 244 254
152 154 152 129 145 135 226 32 201 181 223 328 207 164 317 255 317 304 283 293 313 302 324 302 284 280 267 255 264 254 248 239 240 242 234 229 228 227 226 231 237 246 254
150 135 131 137 109 83 76 335 153 169 156 247 328 243 253 215 238 316 310 311 304 338 318 307 319 318 308 304 300 275 262 257 255 251 239 230 231 234 232 237 244 248 259
108 124 131 116 126 168 103 204 68 226 192 234 224 276 267 313 298 256 298 319 332 320 299 303 313 308 309 292 289 279 272 266 260 258 260 252 244 236 240 250 250 253 262
81 75 86 91 70 38 13 21 34 27 348 335 329 332 348 329 306 285 267 293 288 302 311 308 311 311 309 320 320 342 339 318 285 265 261 257 251 243 242 253 261 264 268
75 56 63 57 56 58 47 57 48 41 23 13 7 337 331 287 281 267 259 268 277 291 296 302 310 307 306 330 343 354 342 332 319 294 276 265 256 249 248 250 255 264 269
72 62 61 60 55 53 46 49 53 42 21 24 22 8 341 338 340 324 282 299 309 291 293 276 291 292 322 323 311 313 275 268 266 262 255 244 241 239 243 248 254 260 263
68 57 54 58 49 43 37 37 36 28 29 21 22 14 2 342 335 320 301 270 269 306 298 296 295 312 299 295 299 304 299 297 270 259 256 251 248 246 249 251 256 257 255
75 74 62 57 48 43 34 40 40 20 28 7 360 358 354 322 319 316 306 293 276 292 299 313 281 268 279 287 291 298 296 292 291 291 277 256 242 247 251 256 256 248 247
67 67 64 62 59 47 36 38 20 13 3 352 352 348 330 317 318 307 304 306 304 293 298 306 297 302 288 278 281 280 279 282 281 273 272 272 249 244 254 258 249 244 240
51 54 69 65 58 46 33 30 11 1 354 350 339 342 336 331 321 312 317 305 300 296 305 307 303 297 293 294 287 285 287 286 282 277 282 270 265 247 256 259 251 246 238
64 67 70 65 54 42 27 14 359 347 347 338 337 336 320 326 329 344 333 322 316 308 294 293 297 298 291 289 295 289 289 289 288 299 306 297 281 270 266 267 260 252 240
61 60 63 62 56 43 24 2 354 348 343 340 323 318 323 342 9 350 335 318 308 301 298 293 294 293 290 300 293 290 297 300 296 299 294 291 290 286 262 258 255 250 238
60 68 75 60 49 37 12 2 348 342 335 326 341 338 335 14 352 343 330 319 312 304 300 298 293 297 298 304 303 304 290 290 286 275 274 278 280 278 276 265 251 246 245
53 61 72 68 45 30 3 7 4 335 340 339 337 339 353 3 343 343 334 322 315 307 304 300 298 297 296 303 303 295 295 296 298 247 294 289 281 276 284 256 239 238 252
47 50 83 68 51 24 5 5 7 359 345 352 346 12 354 349 346 338 329 325 322 319 308 299 295 295 297 297 297 291 287 280 275 285 291 284 280 278 278 270 256 264 265
41 59 61 60 43 26 12 11 0 358 352 339 6 3 355 349 350 346 337 338 334 330 327 318 297 290 287 288 284 282 280 273 272 272 261 274 258 268 262 258 254 258 279
35 58 68 49 31 15 13 9 1 346 323 336 14 2 360 355 349 348 347 343 340 334 333 325 308 294 286 283 277 287 301 287 276 266 253 257 283 282 265 262 66 309 305
28 35 53 51 33 10 9 7 3 339 350 359 1 -0 0 1 348 342 349 348 336 333 329 331 334 333 327 315 305 317 308 317 318 299 356 316 307 323 336 67 349 322 297